When you browse on this site, cookies collect data to enhance your experience and personalize the content and advertising you see.
Visit our Privacy Policy to learn more. By continuing to use the site, you agree to this use of cookies and data.
  • In Latvia
  • List of Countries
  • For 7 days
  • Water Temperature
  • Weather Map
  • Weather Widgets
  • user-avatar
    Login

    Hourly Weather Ainazi

    Today, 23 September, Monday

    Time Temperature Precipitation Wind Pressure Humidity
    00:00 +2°C° 0 mm 3 mps 765 mmHg 78%
    01:00 +2°C° 0 mm 3 mps 765 mmHg 79%
    02:00 +3°C° 0 mm 2 mps 765 mmHg 80%
    03:00 +2°C° 0 mm 2 mps 765 mmHg 81%
    04:00 +2°C° 0 mm 2 mps 766 mmHg 82%
    05:00 +2°C° 0 mm 2 mps 766 mmHg 83%
    06:00 +3°C° 0 mm 2 mps 766 mmHg 79%
    07:00 +5°C° 0 mm 1 mps 766 mmHg 75%
    08:00 +7°C° 0 mm 1 mps 766 mmHg 71%
    09:00 +7°C° 0 mm 2 mps 766 mmHg 64%
    10:00 +9°C° 0 mm 2 mps 766 mmHg 58%
    11:00 +10°C° 0 mm 2 mps 766 mmHg 52%
    12:00 +10°C° 0 mm 2 mps 766 mmHg 51%
    13:00 +11°C° 0 mm 3 mps 766 mmHg 51%
    14:00 +11°C° 0 mm 3 mps 766 mmHg 51%
    15:00 +10°C° 0 mm 3 mps 766 mmHg 54%
    16:00 +10°C° 0 mm 3 mps 766 mmHg 58%
    17:00 +9°C° 0 mm 3 mps 765 mmHg 61%
    18:00 +8°C° 0 mm 3 mps 765 mmHg 65%
    19:00 +7°C° 0 mm 3 mps 765 mmHg 69%
    20:00 +4°C° 0 mm 3 mps 765 mmHg 73%
    21:00 +5°C° 0 mm 2 mps 765 mmHg 75%
    22:00 +4°C° 0 mm 2 mps 765 mmHg 77%
    23:00 +5°C° 0 mm 1 mps 765 mmHg 80%

    Tomorrow, 24 September, Tuesday

    Time Temperature Precipitation Wind Pressure Humidity
    00:00 +5°C° 0 mm 1 mps 765 mmHg 79%
    01:00 +5°C° 0 mm 1 mps 765 mmHg 79%
    02:00 +5°C° 0 mm 1 mps 765 mmHg 78%
    03:00 +5°C° 0 mm 1 mps 765 mmHg 78%
    04:00 +5°C° 0 mm 1 mps 764 mmHg 77%
    05:00 +5°C° 0 mm 1 mps 764 mmHg 76%
    06:00 +6°C° 0 mm 1 mps 764 mmHg 74%
    07:00 +7°C° 0 mm 1 mps 764 mmHg 71%
    08:00 +7°C° 0 mm 1 mps 764 mmHg 69%
    09:00 +9°C° 0 mm 1 mps 764 mmHg 62%
    10:00 +11°C° 0 mm 1 mps 764 mmHg 55%
    11:00 +13°C° 0 mm 1 mps 764 mmHg 49%
    12:00 +13°C° 0 mm 1 mps 764 mmHg 48%
    13:00 +13°C° 0 mm 1 mps 763 mmHg 47%
    14:00 +13°C° 0 mm 2 mps 763 mmHg 46%
    15:00 +12°C° 0 mm 2 mps 763 mmHg 52%
    16:00 +11°C° 0 mm 1 mps 762 mmHg 58%
    17:00 +11°C° 0 mm 1 mps 762 mmHg 64%
    18:00 +9°C° 0 mm 1 mps 762 mmHg 69%
    19:00 +8°C° 0 mm 1 mps 762 mmHg 74%
    20:00 +5°C° 0 mm 2 mps 762 mmHg 79%
    21:00 +5°C° 0 mm 2 mps 762 mmHg 79%
    22:00 +4°C° 0 mm 3 mps 762 mmHg 79%
    23:00 +4°C° 0 mm 3 mps 762 mmHg 78%

    Day after tomorrow, 25 September, Wednesday

    Time Temperature Precipitation Wind Pressure Humidity
    00:00 +4°C° 0 mm 3 mps 761 mmHg 79%
    01:00 +4°C° 0 mm 3 mps 761 mmHg 79%
    02:00 +4°C° 0 mm 4 mps 761 mmHg 80%
    03:00 +4°C° 0 mm 4 mps 761 mmHg 79%
    04:00 +4°C° 0 mm 4 mps 761 mmHg 78%
    05:00 +4°C° 0 mm 4 mps 760 mmHg 77%
    06:00 +5°C° 0 mm 4 mps 760 mmHg 75%
    07:00 +5°C° 0 mm 4 mps 760 mmHg 73%
    08:00 +6°C° 0 mm 4 mps 760 mmHg 71%
    09:00 +6°C° 0 mm 4 mps 760 mmHg 71%
    10:00 +7°C° 0 mm 4 mps 760 mmHg 72%
    11:00 +7°C° 0 mm 4 mps 760 mmHg 72%
    12:00 +8°C° 0 mm 4 mps 760 mmHg 70%
    13:00 +10°C° 0 mm 4 mps 760 mmHg 68%
    14:00 +10°C° 0 mm 4 mps 760 mmHg 67%
    15:00 +10°C° 0 mm 4 mps 760 mmHg 69%
    16:00 +10°C° 0 mm 4 mps 759 mmHg 71%
    17:00 +8°C° 0 mm 4 mps 759 mmHg 74%
    18:00 +7°C° 0 mm 4 mps 760 mmHg 81%
    19:00 +6°C° 0 mm 4 mps 760 mmHg 88%
    20:00 +3°C° 0 mm 5 mps 760 mmHg 95%
    21:00 +4°C° 0 mm 4 mps 760 mmHg 95%
    22:00 +3°C° 0 mm 4 mps 760 mmHg 95%
    23:00 +3°C° 0 mm 4 mps 760 mmHg 95%

    26 September, Thursday

    Time Temperature Precipitation Wind Pressure Humidity
    00:00 +3°C° 0 mm 4 mps 760 mmHg 94%
    01:00 +3°C° 0 mm 4 mps 760 mmHg 94%
    02:00 +2°C° 0 mm 5 mps 760 mmHg 94%
    03:00 +1°C° 0 mm 5 mps 760 mmHg 94%
    04:00 +1°C° 0 mm 5 mps 760 mmHg 94%
    05:00 +1°C° 0 mm 5 mps 760 mmHg 94%
    06:00 +2°C° 0 mm 5 mps 760 mmHg 90%
    07:00 +3°C° 0 mm 5 mps 761 mmHg 87%
    08:00 +3°C° 0 mm 5 mps 761 mmHg 84%
    09:00 +6°C° 0 mm 5 mps 761 mmHg 78%
    10:00 +8°C° 0 mm 5 mps 761 mmHg 71%
    11:00 +10°C° 0 mm 4 mps 761 mmHg 65%
    12:00 +11°C° 0 mm 4 mps 761 mmHg 63%
    13:00 +12°C° 0 mm 4 mps 761 mmHg 61%
    14:00 +12°C° 0 mm 4 mps 761 mmHg 59%
    15:00 +12°C° 0 mm 4 mps 761 mmHg 62%
    16:00 +11°C° 0 mm 4 mps 761 mmHg 66%
    17:00 +11°C° 0 mm 4 mps 761 mmHg 70%
    18:00 +8°C° 0 mm 4 mps 761 mmHg 77%
    19:00 +7°C° 0 mm 4 mps 761 mmHg 83%
    20:00 +5°C° 0 mm 4 mps 761 mmHg 90%
    21:00 +5°C° 0 mm 4 mps 761 mmHg 91%
    22:00 +4°C° 0 mm 4 mps 762 mmHg 92%
    23:00 +4°C° 0 mm 4 mps 762 mmHg 92%

    27 September, Friday

    Time Temperature Precipitation Wind Pressure Humidity
    00:00 +3°C° 0 mm 4 mps 762 mmHg 93%
    01:00 +3°C° 0 mm 4 mps 762 mmHg 94%
    02:00 +3°C° 0 mm 3 mps 762 mmHg 94%
    03:00 +3°C° 0 mm 3 mps 762 mmHg 95%
    04:00 +3°C° 0 mm 3 mps 762 mmHg 95%
    05:00 +1°C° 0 mm 4 mps 762 mmHg 95%
    06:00 +3°C° 0 mm 4 mps 762 mmHg 92%
    07:00 +4°C° 0 mm 4 mps 762 mmHg 88%
    08:00 +5°C° 0 mm 4 mps 762 mmHg 85%
    09:00 +7°C° 0 mm 4 mps 762 mmHg 78%
    10:00 +10°C° 0 mm 3 mps 762 mmHg 71%
    11:00 +12°C° 0 mm 3 mps 762 mmHg 64%
    12:00 +12°C° 0 mm 3 mps 762 mmHg 61%
    13:00 +13°C° 0 mm 3 mps 761 mmHg 58%
    14:00 +15°C° 0 mm 2 mps 761 mmHg 55%
    15:00 +14°C° 0 mm 2 mps 761 mmHg 60%
    16:00 +14°C° 0 mm 2 mps 761 mmHg 64%
    17:00 +13°C° 0 mm 2 mps 760 mmHg 69%
    18:00 +11°C° 0 mm 3 mps 760 mmHg 75%
    19:00 +8°C° 0 mm 4 mps 760 mmHg 82%
    20:00 +7°C° 0 mm 5 mps 760 mmHg 88%
    21:00 +6°C° 0 mm 5 mps 760 mmHg 89%
    22:00 +6°C° 0 mm 5 mps 760 mmHg 91%
    23:00 +5°C° 0 mm 6 mps 760 mmHg 92%

    28 September, Saturday

    Time Temperature Precipitation Wind Pressure Humidity
    00:00 +5°C° 0 mm 6 mps 760 mmHg 93%
    01:00 +5°C° 0 mm 6 mps 759 mmHg 95%
    02:00 +5°C° 0 mm 6 mps 759 mmHg 96%
    03:00 +7°C° 0 mm 6 mps 758 mmHg 96%
    04:00 +6°C° 0 mm 7 mps 758 mmHg 95%
    05:00 +8°C° 0 mm 7 mps 757 mmHg 95%
    06:00 +8°C° 0.1 mm 7 mps 757 mmHg 93%
    07:00 +9°C° 0.1 mm 7 mps 756 mmHg 91%
    08:00 +9°C° 0.1 mm 8 mps 755 mmHg 89%
    09:00 +9°C° 1 mm 8 mps 755 mmHg 91%
    10:00 +10°C° 1 mm 8 mps 755 mmHg 93%
    11:00 +10°C° 1 mm 8 mps 754 mmHg 95%
    12:00 +10°C° 1.2 mm 8 mps 754 mmHg 95%
    13:00 +11°C° 1.2 mm 7 mps 753 mmHg 95%
    14:00 +11°C° 1.2 mm 7 mps 753 mmHg 95%
    15:00 +11°C° 0.3 mm 7 mps 752 mmHg 95%
    16:00 +13°C° 0.3 mm 6 mps 752 mmHg 95%
    17:00 +13°C° 0.3 mm 6 mps 752 mmHg 96%
    18:00 +13°C° 0.7 mm 5 mps 752 mmHg 95%
    19:00 +13°C° 0.7 mm 5 mps 752 mmHg 95%
    20:00 +12°C° 0.7 mm 4 mps 751 mmHg 94%
    21:00 +12°C° 0.2 mm 5 mps 751 mmHg 94%
    22:00 +11°C° 0.2 mm 6 mps 752 mmHg 94%
    23:00 +10°C° 0.2 mm 6 mps 752 mmHg 94%
    Show more